TimeEST,TemperatureF,Dew PointF,Humidity,Sea Level PressureIn,VisibilityMPH,Wind Direction,Wind SpeedMPH,Gust SpeedMPH,PrecipitationIn,Events,Conditions,WindDirDegrees,DateUTC
12:15 AM,60.8,59.0,94,30.22,10.0,ENE,3.5,-,N/A,,Overcast,60,2012-11-14 05:15:00
12:35 AM,60.8,59.0,94,30.22,7.0,NE,4.6,-,N/A,,Overcast,50,2012-11-14 05:35:00
12:55 AM,60.8,59.0,94,30.21,10.0,ENE,3.5,-,N/A,,Overcast,60,2012-11-14 05:55:00
1:15 AM,59.0,59.0,100,30.21,10.0,ENE,4.6,-,N/A,,Overcast,60,2012-11-14 06:15:00
1:35 AM,59.0,57.2,94,30.21,10.0,Calm,Calm,-,N/A,,Overcast,0,2012-11-14 06:35:00
1:55 AM,59.0,57.2,94,30.21,10.0,Calm,Calm,-,N/A,,Overcast,0,2012-11-14 06:55:00
2:15 AM,59.0,57.2,94,30.20,10.0,Calm,Calm,-,N/A,,Overcast,0,2012-11-14 07:15:00
2:35 AM,59.0,55.4,88,30.21,10.0,ENE,3.5,-,N/A,,Overcast,70,2012-11-14 07:35:00
2:55 AM,57.2,55.4,94,30.21,10.0,ENE,3.5,-,N/A,,Overcast,70,2012-11-14 07:55:00
3:15 AM,57.2,55.4,94,30.21,10.0,ENE,5.8,-,N/A,,Overcast,60,2012-11-14 08:15:00
3:35 AM,57.2,55.4,94,30.21,10.0,ENE,5.8,-,N/A,,Overcast,60,2012-11-14 08:35:00
3:55 AM,55.4,55.4,100,30.22,10.0,ENE,6.9,-,N/A,,Overcast,70,2012-11-14 08:55:00
4:15 AM,55.4,55.4,100,30.22,10.0,East,5.8,-,N/A,,Overcast,90,2012-11-14 09:15:00
4:55 AM,55.4,53.6,94,30.23,10.0,East,5.8,-,N/A,,Overcast,90,2012-11-14 09:55:00
5:15 AM,53.6,53.6,100,30.23,10.0,East,5.8,-,N/A,,Overcast,90,2012-11-14 10:15:00
5:35 AM,53.6,53.6,100,30.23,10.0,NE,3.5,-,N/A,,Overcast,50,2012-11-14 10:35:00
5:55 AM,53.6,53.6,100,30.25,7.0,East,6.9,-,N/A,,Overcast,80,2012-11-14 10:55:00
6:15 AM,53.6,51.8,94,30.25,10.0,East,3.5,-,N/A,,Overcast,90,2012-11-14 11:15:00
6:35 AM,53.6,51.8,94,30.26,10.0,East,4.6,-,N/A,,Overcast,80,2012-11-14 11:35:00
6:55 AM,53.6,51.8,94,30.26,10.0,East,4.6,-,N/A,,Overcast,80,2012-11-14 11:55:00
7:15 AM,53.6,51.8,94,30.26,7.0,ENE,3.5,-,N/A,,Overcast,60,2012-11-14 12:15:00
7:35 AM,53.6,51.8,94,30.27,7.0,Calm,Calm,-,N/A,,Overcast,0,2012-11-14 12:35:00
7:55 AM,53.6,51.8,94,30.27,7.0,Calm,Calm,-,N/A,,Overcast,0,2012-11-14 12:55:00
8:15 AM,53.6,51.8,94,30.28,7.0,Calm,Calm,-,N/A,,Overcast,0,2012-11-14 13:15:00
8:35 AM,53.6,51.8,94,30.29,4.0,Calm,Calm,-,N/A,,Overcast,0,2012-11-14 13:35:00
8:55 AM,53.6,51.8,94,30.30,3.0,Calm,Calm,-,N/A,,Overcast,0,2012-11-14 13:55:00
9:15 AM,53.6,51.8,94,30.31,2.5,Calm,Calm,-,N/A,,Overcast,0,2012-11-14 14:15:00
9:35 AM,53.6,53.6,100,30.30,3.0,ENE,4.6,-,N/A,,Overcast,70,2012-11-14 14:35:00
9:55 AM,53.6,53.6,100,30.31,3.0,NE,3.5,-,N/A,,Overcast,50,2012-11-14 14:55:00
10:15 AM,53.6,53.6,100,30.31,4.0,Calm,Calm,-,N/A,,Overcast,0,2012-11-14 15:15:00
10:35 AM,53.6,53.6,100,30.31,7.0,East,3.5,-,N/A,,Overcast,100,2012-11-14 15:35:00
10:55 AM,53.6,53.6,100,30.31,5.0,Calm,Calm,-,N/A,,Overcast,0,2012-11-14 15:55:00
11:15 AM,55.4,53.6,94,30.30,10.0,Calm,Calm,-,N/A,,Overcast,0,2012-11-14 16:15:00
11:35 AM,55.4,53.6,94,30.29,10.0,Calm,Calm,-,N/A,,Overcast,0,2012-11-14 16:35:00
11:55 AM,55.4,53.6,94,30.28,10.0,NNE,5.8,-,N/A,,Overcast,30,2012-11-14 16:55:00
12:15 PM,53.6,53.6,100,30.28,10.0,East,4.6,-,N/A,,Overcast,80,2012-11-14 17:15:00
12:35 PM,55.4,53.6,94,30.27,10.0,NE,4.6,-,N/A,,Overcast,50,2012-11-14 17:35:00
12:55 PM,55.4,53.6,94,30.26,10.0,ENE,5.8,-,N/A,,Overcast,70,2012-11-14 17:55:00
1:15 PM,53.6,53.6,100,30.26,10.0,Calm,Calm,-,N/A,,Overcast,0,2012-11-14 18:15:00
1:35 PM,53.6,53.6,100,30.25,10.0,ENE,3.5,-,N/A,,Overcast,60,2012-11-14 18:35:00
1:55 PM,53.6,53.6,100,30.24,10.0,NE,3.5,-,N/A,,Overcast,50,2012-11-14 18:55:00
2:15 PM,53.6,51.8,94,30.23,7.0,North,3.5,-,N/A,,Overcast,10,2012-11-14 19:15:00
2:35 PM,53.6,51.8,94,30.24,7.0,East,5.8,-,N/A,,Overcast,90,2012-11-14 19:35:00
2:55 PM,53.6,51.8,94,30.23,10.0,Calm,Calm,-,N/A,,Overcast,0,2012-11-14 19:55:00
3:15 PM,53.6,51.8,94,30.23,10.0,ENE,3.5,-,N/A,,Overcast,70,2012-11-14 20:15:00
3:35 PM,53.6,51.8,94,30.23,7.0,Calm,Calm,-,N/A,,Overcast,0,2012-11-14 20:35:00
3:55 PM,53.6,51.8,94,30.23,7.0,Calm,Calm,-,N/A,,Overcast,0,2012-11-14 20:55:00
4:15 PM,53.6,51.8,94,30.23,7.0,ENE,3.5,-,N/A,,Overcast,60,2012-11-14 21:15:00
4:35 PM,53.6,51.8,94,30.22,10.0,Calm,Calm,-,N/A,,Overcast,0,2012-11-14 21:35:00
4:55 PM,53.6,51.8,94,30.23,7.0,Calm,Calm,-,N/A,,Overcast,0,2012-11-14 21:55:00
5:15 PM,53.6,51.8,94,30.22,7.0,ENE,3.5,-,N/A,,Overcast,70,2012-11-14 22:15:00
5:35 PM,53.6,51.8,94,30.23,10.0,Calm,Calm,-,N/A,,Overcast,0,2012-11-14 22:35:00
5:55 PM,53.6,51.8,94,30.23,10.0,ENE,4.6,-,N/A,,Overcast,70,2012-11-14 22:55:00
6:15 PM,53.6,51.8,94,30.23,7.0,ENE,5.8,-,N/A,,Overcast,70,2012-11-14 23:15:00
6:35 PM,53.6,51.8,94,30.25,10.0,East,3.5,-,N/A,,Overcast,80,2012-11-14 23:35:00
6:55 PM,53.6,51.8,94,30.26,7.0,Calm,Calm,-,N/A,,Overcast,0,2012-11-14 23:55:00
7:15 PM,53.6,51.8,94,30.26,7.0,Calm,Calm,-,N/A,,Overcast,0,2012-11-15 00:15:00
7:35 PM,53.6,51.8,94,30.26,5.0,Calm,Calm,-,N/A,,Overcast,0,2012-11-15 00:35:00
7:55 PM,51.8,51.8,100,30.26,5.0,Calm,Calm,-,N/A,,Overcast,0,2012-11-15 00:55:00
8:15 PM,51.8,51.8,100,30.25,5.0,ENE,3.5,-,N/A,,Overcast,60,2012-11-15 01:15:00
8:35 PM,51.8,51.8,100,30.25,5.0,Calm,Calm,-,N/A,,Overcast,0,2012-11-15 01:35:00
8:55 PM,51.8,51.8,100,30.25,7.0,Calm,Calm,-,N/A,,Overcast,0,2012-11-15 01:55:00
9:15 PM,51.8,51.8,100,30.23,7.0,ENE,3.5,-,N/A,,Overcast,70,2012-11-15 02:15:00
9:35 PM,51.8,50.0,94,30.25,7.0,NNW,3.5,-,N/A,,Overcast,330,2012-11-15 02:35:00
9:55 PM,51.8,50.0,94,30.25,7.0,NNW,3.5,-,N/A,,Overcast,340,2012-11-15 02:55:00
10:15 PM,51.8,50.0,94,30.24,7.0,Calm,Calm,-,N/A,,Overcast,0,2012-11-15 03:15:00
10:35 PM,51.8,50.0,94,30.24,7.0,Calm,Calm,-,N/A,,Overcast,0,2012-11-15 03:35:00
10:55 PM,51.8,50.0,94,30.23,7.0,Calm,Calm,-,N/A,,Overcast,0,2012-11-15 03:55:00
11:15 PM,51.8,50.0,94,30.23,7.0,Calm,Calm,-,N/A,,Overcast,0,2012-11-15 04:15:00
11:35 PM,51.8,50.0,94,30.23,7.0,Calm,Calm,-,N/A,,Overcast,0,2012-11-15 04:35:00
11:55 PM,51.8,50.0,94,30.22,7.0,Calm,Calm,-,N/A,,Overcast,0,2012-11-15 04:55:00